• Join FlightAware (Why Join?)
  • Login
  • US Flag GB Flag 
07:20 EDT


 

Airport Tracker/Info


-or-


 

Live Flight TrackerFlight Track Log ✈ FDX130 ✈ 17-Aug-2013 ✈ KMEM - CYMX

Flight Track Log - Related Links

Times and Time Zones

All times are in EDT time to prevent confusion due to time zone crossing. See the FDX130 flight status page for this flight to view local times or setup timezone preferences in your user account.

Time Position Orientation Groundspeed Altitude Reporting Facility
EDT Latitude Longitude Course Direction KTS MPH feet Rate Location/Type
05:17 35.0167 -89.9667 180° South 173 199 1,200  Level KMEM
05:17 34.9833 -89.9667 180° South 182 209 1,900 1,440 Climbing KMEM
05:18 34.9333 -89.9333 151° Southeast 258 297 3,400 2,040 Climbing KMEM
05:19 34.9333 -89.8333 90° East 282 325 6,200 2,580 Climbing KMEM
05:20 34.9667 -89.7500 64° Northeast 280 322 8,900 2,040 Climbing KMEM
05:22 35.0639 -89.6925 26° Northeast 340 391 10,800 1,500 Climbing Memphis Center
05:23 35.1492 -89.6283 32° Northeast 356 410 12,300 1,800 Climbing Memphis Center
05:24 35.2364 -89.5589 33° Northeast 366 421 14,500 2,040 Climbing Memphis Center
05:25 35.3297 -89.4867 32° Northeast 377 434 16,400 1,800 Climbing Memphis Center
05:26 35.4231 -89.4067 35° Northeast 393 452 18,100 1,680 Climbing Memphis Center
05:27 35.5014 -89.3011 48° Northeast 400 460 19,800 1,500 Climbing Memphis Center
05:28 35.5817 -89.1981 46° Northeast 416 479 21,100 1,260 Climbing Memphis Center
05:29 35.6683 -89.0894 45° Northeast 424 488 22,400 1,200 Climbing Memphis Center
05:30 35.7403 -88.9886 49° Northeast 424 488 23,500 1,080 Climbing Memphis Center
05:35 36.2090 -88.3820 49° Northeast 488 562 29,000 1,020 Climbing FlightAware
05:35 36.2790 -88.3220 35° Northeast 491 565 29,500 720 Climbing FlightAware
05:36 36.3480 -88.2740 29° Northeast 497 572 29,900 600 Climbing FlightAware
05:37 36.4300 -88.2150 30° Northeast 503 579 30,300 540 Climbing FlightAware
05:37 36.4950 -88.1690 30° Northeast 508 585 30,600 600 Climbing FlightAware
05:38 36.5710 -88.1170 29° Northeast 512 589 31,000 720 Climbing FlightAware
05:38 36.6470 -88.0660 28° Northeast 515 593 31,500 660 Climbing FlightAware
05:39 36.7120 -88.0210 29° Northeast 517 595 31,800 600 Climbing FlightAware
05:39 36.7900 -87.9690 28° Northeast 519 597 32,200 600 Climbing FlightAware
05:40 36.8670 -87.9170 28° Northeast 519 597 32,600 720 Climbing FlightAware
05:41 36.9360 -87.8710 28° Northeast 518 596 33,100 840 Climbing FlightAware
05:41 37.0150 -87.8190 28° Northeast 517 595 33,600 720 Climbing FlightAware
05:42 37.0930 -87.7690 27° Northeast 519 597 34,000 660 Climbing FlightAware
05:42 37.1690 -87.7190 28° Northeast 521 600 34,400 660 Climbing FlightAware
05:43 37.2420 -87.6710 28° Northeast 522 601 34,800 480 Climbing FlightAware
05:44 37.3200 -87.6200 27° Northeast 523 602 35,000 120 Climbing FlightAware
05:44 37.3830 -87.5650 35° Northeast 522 601 35,000  Level FlightAware
05:45 37.4410 -87.4850 48° Northeast 518 596 35,000  Level FlightAware
05:45 37.4970 -87.4020 50° Northeast 519 597 35,000  Level FlightAware
05:46 37.5530 -87.3200 49° Northeast 517 595 35,000  Level FlightAware
05:46 37.6040 -87.2460 49° Northeast 518 596 35,000  Level FlightAware
05:47 37.6560 -87.1670 50° Northeast 519 597 35,000  Level FlightAware
05:48 37.7150 -87.0800 49° Northeast 519 597 35,000  Level FlightAware
05:48 37.7640 -87.0050 50° Northeast 519 597 35,000  Level FlightAware
05:49 37.8190 -86.9240 49° Northeast 520 598 35,000  Level FlightAware
05:49 37.8760 -86.8380 50° Northeast 521 600 35,000  Level FlightAware
05:50 37.9390 -86.7450 49° Northeast 523 602 35,000  Level FlightAware
05:51 37.9960 -86.6580 50° Northeast 524 603 35,000  Level FlightAware
05:51 38.0520 -86.5750 49° Northeast 525 604 35,000  Level FlightAware
05:52 38.1020 -86.4970 51° Northeast 529 609 35,000  Level FlightAware
05:52 38.1590 -86.4130 49° Northeast 531 611 35,000  Level FlightAware
05:53 38.2160 -86.3270 50° Northeast 535 616 35,000  Level FlightAware
05:54 38.2690 -86.2440 51° Northeast 536 617 35,000  Level FlightAware
05:54 38.3270 -86.1540 51° Northeast 536 617 35,000  Level FlightAware
05:55 38.3780 -86.0770 50° Northeast 534 615 35,000  Level FlightAware
05:55 38.4380 -85.9840 51° Northeast 533 613 35,000  Level FlightAware
05:56 38.4930 -85.8990 50° Northeast 533 613 35,000  Level FlightAware
05:56 38.5510 -85.8100 50° Northeast 532 612 35,000  Level FlightAware
05:57 38.6000 -85.7340 50° Northeast 533 613 35,000  Level FlightAware
05:58 38.6600 -85.6420 50° Northeast 535 616 35,000  Level FlightAware
05:58 38.7070 -85.5680 51° Northeast 536 617 35,000  Level FlightAware
05:59 38.7710 -85.4670 51° Northeast 536 617 35,000  Level FlightAware
05:59 38.8250 -85.3840 50° Northeast 537 618 35,000  Level FlightAware
06:00 38.8760 -85.3020 51° Northeast 538 619 35,000  Level FlightAware
06:01 38.9330 -85.2130 51° Northeast 538 619 35,000  Level FlightAware
06:01 38.9820 -85.1360 51° Northeast 539 620 35,000 60 Level FlightAware
06:02 39.0420 -85.0410 51° Northeast 536 617 35,100  Climbing FlightAware
06:02 39.0960 -84.9550 51° Northeast 532 612 35,000 -120 Descending FlightAware
06:03 39.1410 -84.8830 51° Northeast 530 610 35,000  Level FlightAware
06:03 39.2080 -84.7760 51° Northeast 531 611 35,000  Level FlightAware
06:04 39.2560 -84.6990 51° Northeast 533 613 35,000  Level FlightAware
06:05 39.3130 -84.6070 51° Northeast 531 611 35,000  Level FlightAware
06:05 39.3670 -84.5200 51° Northeast 535 616 35,000  Level FlightAware
06:06 39.4180 -84.4400 50° Northeast 534 615 35,000  Level FlightAware
06:06 39.4770 -84.3430 52° Northeast 533 613 35,000  Level FlightAware
06:07 39.5310 -84.2560 51° Northeast 535 616 35,000  Level FlightAware
06:08 39.5810 -84.1730 52° Northeast 538 619 35,000  Level FlightAware
06:08 39.6360 -84.0840 51° Northeast 538 619 35,000  Level FlightAware
06:09 39.6890 -83.9980 51° Northeast 538 619 35,000  Level FlightAware
06:09 39.7410 -83.9120 52° Northeast 538 619 35,000  Level FlightAware
06:10 39.8010 -83.8150 51° Northeast 539 620 35,000  Level FlightAware
06:10 39.8560 -83.7230 52° Northeast 540 621 35,000 60 Level FlightAware
06:11 39.9110 -83.6320 52° Northeast 541 623 35,100  Climbing FlightAware
06:12 39.9590 -83.5520 52° Northeast 541 623 35,000 -120 Descending FlightAware
06:12 40.0170 -83.4540 52° Northeast 540 621 35,000 60 Level FlightAware
06:13 40.0710 -83.3640 52° Northeast 540 621 35,100  Climbing FlightAware
06:13 40.1210 -83.2820 51° Northeast 539 620 35,000 -120 Descending FlightAware
06:14 40.1790 -83.1840 52° Northeast 538 619 35,000  Level FlightAware
06:15 40.2280 -83.1020 52° Northeast 538 619 35,000  Level FlightAware
06:15 40.2810 -83.0120 52° Northeast 537 618 35,000  Level FlightAware
06:16 40.3350 -82.9190 53° Northeast 537 618 35,000  Level FlightAware
06:16 40.3920 -82.8240 52° Northeast 536 617 35,000  Level FlightAware
06:17 40.4400 -82.7420 52° Northeast 536 617 35,000  Level FlightAware
06:17 40.4950 -82.6480 52° Northeast 540 621 35,000  Level FlightAware
06:18 40.5470 -82.5600 52° Northeast 540 621 35,000  Level FlightAware
06:19 40.6020 -82.4630 53° Northeast 539 620 35,000  Level FlightAware
06:19 40.6560 -82.3720 52° Northeast 536 617 35,000  Level FlightAware
06:20 40.7030 -82.2900 53° Northeast 534 615 35,000  Level FlightAware
06:20 40.7680 -82.1780 53° Northeast 536 617 35,000  Level FlightAware
06:21 40.8260 -82.0760 53° Northeast 537 618 35,000  Level FlightAware
06:22 40.8740 -81.9920 53° Northeast 537 618 35,000  Level FlightAware
06:22 40.9270 -81.9010 52° Northeast 537 618 35,000  Level FlightAware
06:23 40.9820 -81.8030 53° Northeast 538 619 35,000  Level FlightAware
06:23 41.0300 -81.7190 53° Northeast 538 619 35,000  Level FlightAware
06:24 41.0860 -81.6190 53° Northeast 538 619 35,000 60 Level FlightAware
06:25 41.1400 -81.5240 53° Northeast 533 613 35,100  Climbing FlightAware
06:25 41.1870 -81.4400 53° Northeast 532 612 35,000 -120 Descending FlightAware
06:26 41.2400 -81.3460 53° Northeast 532 612 35,000  Level FlightAware
06:26 41.2950 -81.2490 53° Northeast 531 611 35,000  Level FlightAware
06:27 41.3420 -81.1620 54° Northeast 533 613 35,000  Level FlightAware
06:27 41.3950 -81.0670 53° Northeast 535 616 35,000  Level FlightAware
06:28 41.4480 -80.9710 54° Northeast 537 618 35,000  Level FlightAware
06:29 41.4930 -80.8910 53° Northeast 538 619 35,000  Level FlightAware
06:29 41.5480 -80.7890 54° Northeast 537 618 35,000  Level FlightAware
06:30 41.5980 -80.6990 53° Northeast 538 619 35,000  Level FlightAware
06:30 41.6510 -80.6020 54° Northeast 537 618 35,000  Level FlightAware
06:31 41.7000 -80.5130 54° Northeast 538 619 35,000  Level FlightAware
06:32 41.7540 -80.4140 54° Northeast 539 620 35,000  Level FlightAware
06:32 41.8030 -80.3220 54° Northeast 539 620 35,000  Level FlightAware
06:33 41.8590 -80.2190 54° Northeast 538 619 35,000  Level FlightAware
06:33 41.9060 -80.1320 54° Northeast 538 619 35,000  Level FlightAware
06:34 41.9590 -80.0350 54° Northeast 539 620 35,000  Level FlightAware
06:35 42.0100 -79.9370 55° Northeast 540 621 35,000  Level FlightAware
06:35 42.0630 -79.8380 54° Northeast 540 621 35,000  Level FlightAware
06:36 42.1150 -79.7430 54° Northeast 540 621 35,000  Level FlightAware
06:36 42.1700 -79.6360 55° Northeast 540 621 35,000  Level FlightAware
06:37 42.2190 -79.5460 54° Northeast 540 621 35,000  Level FlightAware
06:37 42.2710 -79.4470 55° Northeast 540 621 35,000  Level FlightAware
06:38 42.3260 -79.3420 55° Northeast 541 623 35,000  Level FlightAware
06:39 42.3720 -79.2540 55° Northeast 541 623 35,000  Level FlightAware
06:39 42.4270 -79.1490 55° Northeast 541 623 35,000  Level FlightAware
06:40 42.4720 -79.0630 55° Northeast 542 624 35,000  Level FlightAware
06:40 42.5300 -78.9520 55° Northeast 541 623 35,000  Level FlightAware
06:41 42.5750 -78.8630 56° Northeast 541 623 35,000  Level FlightAware
06:42 42.6260 -78.7630 55° Northeast 541 623 35,000  Level FlightAware
06:42 42.6790 -78.6630 54° Northeast 540 621 35,000  Level FlightAware
06:43 42.7290 -78.5630 56° Northeast 537 618 35,000  Level FlightAware
06:43 42.7740 -78.4740 55° Northeast 533 613 35,000  Level FlightAware
06:44 42.8230 -78.3780 55° Northeast 532 612 35,000  Level FlightAware
06:45 42.8750 -78.2760 55° Northeast 533 613 35,000  Level FlightAware
06:45 42.9200 -78.1870 55° Northeast 532 612 35,000  Level FlightAware
06:46 42.9690 -78.0880 56° Northeast 534 615 35,000  Level FlightAware
06:46 43.0210 -77.9840 56° Northeast 537 618 35,000  Level FlightAware
06:47 43.0710 -77.8860 55° Northeast 536 617 35,000  Level FlightAware
06:47 43.1160 -77.7970 55° Northeast 535 616 35,000  Level FlightAware
06:48 43.1600 -77.7080 56° Northeast 534 615 35,000  Level FlightAware
06:49 43.2120 -77.6010 56° Northeast 535 616 35,000  Level FlightAware
06:49 43.2620 -77.5000 56° Northeast 535 616 35,000  Level FlightAware
06:50 43.3130 -77.3980 55° Northeast 535 616 35,000  Level FlightAware
06:50 43.3600 -77.3030 56° Northeast 534 615 35,000  Level FlightAware
06:51 43.4090 -77.2010 57° Northeast 534 615 35,000 60 Level FlightAware
06:52 43.4560 -77.1060 56° Northeast 532 612 35,100 60 Climbing FlightAware
06:52 43.5020 -77.0100 57° Northeast 530 610 35,100 -120 Level FlightAware
06:53 43.5520 -76.9060 56° Northeast 526 605 35,000 -120 Descending FlightAware
06:53 43.6000 -76.8090 56° Northeast 525 604 35,000  Level FlightAware
06:54 43.6430 -76.7170 57° Northeast 523 602 35,000  Level FlightAware
06:54 43.6900 -76.6170 57° Northeast 521 600 35,000  Level FlightAware
06:55 43.7420 -76.5110 56° Northeast 523 602 35,000  Level FlightAware
06:56 43.7850 -76.4190 57° Northeast 526 605 35,000  Level FlightAware
06:56 43.8330 -76.3200 56° Northeast 528 608 35,000 -300 Level FlightAware
06:57 43.8810 -76.2180 57° Northeast 524 603 34,700 -540 Descending FlightAware
06:57 43.9230 -76.1320 56° Northeast 493 567 34,400 -720 Descending FlightAware
06:58 43.9780 -76.0500 47° Northeast 477 549 33,900 -840 Descending FlightAware
06:59 44.0410 -75.9870 36° Northeast 469 540 33,400 -840 Descending FlightAware
06:59 44.1070 -75.9280 33° Northeast 471 542 32,900 -1,140 Descending FlightAware
07:00 44.1590 -75.8820 32° Northeast 468 539 32,200 -2,160 Descending FlightAware
07:00 44.2320 -75.8180 32° Northeast 464 534 30,500 -2,460 Descending FlightAware
07:01 44.2890 -75.7660 33° Northeast 460 529 29,300 -1,860 Descending FlightAware
07:02 44.3690 -75.6950 32° Northeast 445 512 28,100 -1,380 Descending FlightAware
07:02 44.4300 -75.6400 33° Northeast 443 510 27,500 -1,080 Descending FlightAware
07:03 44.5010 -75.5770 32° Northeast 440 506 26,800 -1,080 Descending FlightAware
07:03 44.5610 -75.5220 33° Northeast 439 505 26,200 -960 Descending FlightAware
07:04 44.6220 -75.4670 33° Northeast 428 493 25,700 -960 Descending FlightAware
07:05 44.6800 -75.4150 33° Northeast 424 488 25,100 -1,080 Descending FlightAware
07:05 44.7340 -75.3540 39° Northeast 431 496 24,500 -1,080 Descending FlightAware
07:06 44.7790 -75.2800 49° Northeast 432 497 23,900 -1,020 Descending FlightAware
07:06 44.8240 -75.2040 50° Northeast 422 486 23,300 -1,080 Descending FlightAware
07:07 44.8670 -75.1290 51° Northeast 419 482 22,700 -1,500 Descending FlightAware
07:07 44.9100 -75.0540 51° Northeast 415 478 21,600 -1,920 Descending FlightAware
07:08 44.9520 -74.9810 51° Northeast 410 472 20,500 -1,800 Descending FlightAware
07:09 44.9900 -74.9080 54° Northeast 402 463 19,500 -1,800 Descending FlightAware
07:09 45.0250 -74.8290 58° Northeast 395 455 18,400 -1,680 Descending FlightAware
07:10 45.0590 -74.7500 59° Northeast 385 443 17,500 -1,680 Descending FlightAware
07:10 45.0910 -74.6790 57° Northeast 376 433 16,500 -2,460 Descending FlightAware
07:11 45.1350 -74.6010 51° Northeast 376 433 14,600 -3,600 Descending FlightAware
07:12 45.1820 -74.5550 35° Northeast 371 427 12,200 -3,480 Descending FlightAware
07:12 45.2290 -74.5090 35° Northeast 339 390 10,700 -2,280 Descending FlightAware
07:13 45.2630 -74.4760 34° Northeast 310 357 9,900 -1,380 Descending FlightAware
07:13 45.2860 -74.4540 34° Northeast 283 326 9,600 -1,800 Descending FlightAware
07:13 45.3120 -74.4280 35° Northeast 278 320 8,600 -2,280 Descending FlightAware
07:14 45.3270 -74.4130 35° Northeast 272 313 8,100 -2,100 Descending FlightAware
07:14 45.3550 -74.3840 36° Northeast 264 304 7,100 -2,280 Descending FlightAware
07:14 45.3740 -74.3660 34° Northeast 260 299 6,400 -2,400 Descending FlightAware
07:15 45.3930 -74.3470 35° Northeast 258 297 5,600 -2,220 Descending FlightAware
07:15 45.4110 -74.3300 34° Northeast 256 295 5,000 -1,920 Descending FlightAware
07:15 45.4360 -74.3050 35° Northeast 252 290 4,200 -1,740 Descending FlightAware
07:16 45.4550 -74.2870 34° Northeast 240 276 3,700 -1,080 Descending FlightAware
07:16 45.4740 -74.2730 27° Northeast 222 255 3,500 -840 Descending FlightAware
07:17 45.4960 -74.2580 26° Northeast 220 253 3,100 -1,020 Descending FlightAware
07:17 45.5160 -74.2410 31° Northeast 220 253 2,700 -480 Descending FlightAware
07:17 45.5400 -74.2070 45° Northeast 219 252 2,700 -180 Level FlightAware
07:18 45.5510 -74.1920 44° Northeast 218 251 2,600 -180 Descending FlightAware
07:18 45.5660 -74.1700 46° Northeast 206 237 2,600 -180 Level FlightAware
07:18 45.5780 -74.1530 45° Northeast 192 221 2,500 -540 Descending FlightAware
07:19 45.5880 -74.1390 44° Northeast 187 215 2,300 -1,140 Descending FlightAware
07:19 45.6020 -74.1190 45° Northeast 185 213 1,800 -1,080 Descending FlightAware
07:20 45.6180 -74.0970 44° Northeast 171 197 1,400 -900 Descending FlightAware
07:20 45.6210 -74.0920 49° Northeast 165 190 1,300 -1,020 Descending FlightAware
07:20 45.6250 -74.0860 46° Northeast 161 185 1,200 -780 Descending FlightAware
07:20 45.6360 -74.0710 44° Northeast 144 166 900 -720 Descending FlightAware
07:20 45.6450 -74.0580 45° Northeast 141 162 700 -780 Descending FlightAware
07:21 45.6590 -74.0380 45° Northeast 136 157 300 -720 Descending FlightAware
07:21 45.6600 -74.0370 35° Northeast 135 155 300 -540 Level FlightAware
07:21 45.6630 -74.0320 49° Northeast 134 154 200 -240 Descending FlightAware
07:22 45.6720 -74.0180 47° Northeast 134 154 200 60 Level FlightAware
07:22 45.6833 -74.0000 47° Northeast 40 46 300  Climbing Montreal Center
07:23 45.6833 -74.0000 47° Northeast 20 23 300  Level Montreal Center
07:25 45.6833 -74.0000 360° North 20 23 300  Level Montreal Center
07:27 45.6833 -74.0000 360° North 320 368 300  Level Montreal Center
07:28 45.6833 -74.0000 360° North 20 23 300  Level Montreal Center
07:29 45.6667 -74.0333 234° Southwest 10 12 300  Level Montreal Center
07:30 45.6667 -74.0333 234° Southwest 20 23 300  Level Montreal Center